When you browse on this site, cookies collect data to enhance your experience and personalize the content and advertising you see.
Visit our Privacy Policy to learn more. By continuing to use the site, you agree to this use of cookies and data.
  • In United Kingdom
  • List of Countries
  • For 7 days
  • Water Temperature
  • Weather Map
  • Weather Widgets
  • user-avatar
    Login

    Hourly Weather Antwerp

    Today, 21 February, Friday

    Time Temperature Precipitation Wind Pressure Humidity
    00:00 +3°C° 0 mm 5 mps 764 mmHg 72%
    01:00 +2°C° 0 mm 5 mps 765 mmHg 73%
    02:00 +2°C° 0 mm 5 mps 765 mmHg 74%
    03:00 +2°C° 0 mm 6 mps 766 mmHg 75%
    04:00 +2°C° 0 mm 5 mps 766 mmHg 76%
    05:00 +2°C° 0 mm 5 mps 767 mmHg 76%
    06:00 +2°C° 0 mm 5 mps 767 mmHg 77%
    13:00 +7°C° 0 mm 8 mps 768 mmHg 68%
    14:00 +6°C° 0 mm 7 mps 767 mmHg 69%
    15:00 +6°C° 0 mm 7 mps 767 mmHg 70%
    16:00 +6°C° 0 mm 7 mps 767 mmHg 71%
    17:00 +6°C° 0 mm 7 mps 767 mmHg 72%
    18:00 +6°C° 0 mm 7 mps 767 mmHg 73%
    19:00 +5°C° 0 mm 7 mps 767 mmHg 74%
    20:00 +5°C° 0 mm 7 mps 766 mmHg 75%
    21:00 +5°C° 0 mm 8 mps 766 mmHg 76%
    22:00 +5°C° 0 mm 8 mps 766 mmHg 78%
    23:00 +5°C° 0 mm 8 mps 766 mmHg 79%

    Tomorrow, 22 February, Saturday

    Time Temperature Precipitation Wind Pressure Humidity
    00:00 +5°C° 0 mm 8 mps 766 mmHg 80%
    01:00 +5°C° 0 mm 8 mps 765 mmHg 80%
    02:00 +4°C° 0 mm 8 mps 764 mmHg 79%
    03:00 +4°C° 0 mm 8 mps 764 mmHg 78%
    04:00 +4°C° 0 mm 8 mps 764 mmHg 76%
    05:00 +3°C° 0 mm 9 mps 763 mmHg 73%
    06:00 +3°C° 0 mm 9 mps 763 mmHg 70%
    07:00 +5°C° 0 mm 10 mps 763 mmHg 71%
    08:00 +6°C° 0 mm 10 mps 763 mmHg 71%
    09:00 +6°C° 0 mm 11 mps 763 mmHg 71%
    10:00 +7°C° 0 mm 10 mps 763 mmHg 73%
    11:00 +8°C° 0 mm 10 mps 763 mmHg 75%
    12:00 +9°C° 0 mm 10 mps 764 mmHg 77%
    13:00 +10°C° 0.1 mm 9 mps 764 mmHg 74%
    14:00 +10°C° 0.1 mm 9 mps 764 mmHg 72%
    15:00 +10°C° 0.1 mm 8 mps 763 mmHg 69%
    16:00 +10°C° 0 mm 8 mps 764 mmHg 69%
    17:00 +9°C° 0 mm 8 mps 764 mmHg 70%
    18:00 +9°C° 0 mm 7 mps 765 mmHg 70%
    19:00 +8°C° 0 mm 7 mps 765 mmHg 70%
    20:00 +8°C° 0 mm 7 mps 766 mmHg 70%
    21:00 +8°C° 0 mm 6 mps 766 mmHg 70%
    22:00 +7°C° 0 mm 6 mps 766 mmHg 71%
    23:00 +7°C° 0 mm 6 mps 766 mmHg 72%

    Day after tomorrow, 23 February, Sunday

    Time Temperature Precipitation Wind Pressure Humidity
    00:00 +7°C° 0 mm 6 mps 767 mmHg 74%
    01:00 +7°C° 0.2 mm 6 mps 766 mmHg 77%
    02:00 +7°C° 0.2 mm 6 mps 766 mmHg 80%
    03:00 +7°C° 0.2 mm 6 mps 766 mmHg 83%
    04:00 +6°C° 1.3 mm 7 mps 765 mmHg 85%
    05:00 +6°C° 1.3 mm 7 mps 764 mmHg 87%
    06:00 +6°C° 1.3 mm 8 mps 763 mmHg 89%
    07:00 +7°C° 0.9 mm 9 mps 761 mmHg 88%
    08:00 +9°C° 0.9 mm 10 mps 760 mmHg 87%
    09:00 +10°C° 0.9 mm 12 mps 759 mmHg 86%
    10:00 +12°C° 0.1 mm 12 mps 759 mmHg 82%
    11:00 +12°C° 0.1 mm 13 mps 758 mmHg 79%
    12:00 +13°C° 0.1 mm 13 mps 758 mmHg 76%
    13:00 +12°C° 0.1 mm 13 mps 758 mmHg 76%
    14:00 +12°C° 0.1 mm 13 mps 758 mmHg 77%
    15:00 +12°C° 0.1 mm 13 mps 758 mmHg 78%
    16:00 +10°C° 0.6 mm 12 mps 759 mmHg 76%
    17:00 +8°C° 0.6 mm 10 mps 761 mmHg 74%
    18:00 +7°C° 0.6 mm 8 mps 762 mmHg 73%
    19:00 +6°C° 0 mm 7 mps 764 mmHg 73%
    20:00 +5°C° 0 mm 6 mps 765 mmHg 73%
    21:00 +5°C° 0 mm 4 mps 766 mmHg 74%
    22:00 +5°C° 0 mm 4 mps 767 mmHg 74%
    23:00 +4°C° 0 mm 3 mps 768 mmHg 75%

    24 February, Monday

    Time Temperature Precipitation Wind Pressure Humidity
    00:00 +5°C° 0 mm 2 mps 768 mmHg 76%
    01:00 +5°C° 0 mm 2 mps 768 mmHg 77%
    02:00 +4°C° 0 mm 2 mps 768 mmHg 77%
    03:00 +4°C° 0 mm 2 mps 768 mmHg 78%
    04:00 +4°C° 0 mm 2 mps 768 mmHg 78%
    05:00 +4°C° 0 mm 2 mps 768 mmHg 79%
    06:00 +3°C° 0 mm 3 mps 767 mmHg 79%
    07:00 +4°C° 0 mm 3 mps 767 mmHg 78%
    08:00 +4°C° 0 mm 4 mps 766 mmHg 76%
    09:00 +5°C° 0 mm 4 mps 766 mmHg 75%
    10:00 +7°C° 0 mm 5 mps 765 mmHg 78%
    11:00 +8°C° 0 mm 6 mps 763 mmHg 81%
    12:00 +10°C° 0 mm 7 mps 762 mmHg 85%
    13:00 +10°C° 0 mm 7 mps 761 mmHg 83%
    14:00 +11°C° 0 mm 8 mps 760 mmHg 82%
    15:00 +11°C° 0 mm 8 mps 759 mmHg 80%
    16:00 +10°C° 0 mm 8 mps 759 mmHg 79%
    17:00 +10°C° 0 mm 8 mps 758 mmHg 78%
    18:00 +9°C° 0 mm 8 mps 758 mmHg 77%
    19:00 +9°C° 0 mm 8 mps 758 mmHg 77%
    20:00 +9°C° 0 mm 8 mps 758 mmHg 77%
    21:00 +8°C° 0 mm 9 mps 757 mmHg 77%
    22:00 +9°C° 0.1 mm 8 mps 757 mmHg 79%
    23:00 +9°C° 0.1 mm 8 mps 757 mmHg 81%

    25 February, Tuesday

    Time Temperature Precipitation Wind Pressure Humidity
    00:00 +9°C° 0.1 mm 7 mps 757 mmHg 82%
    01:00 +8°C° 0 mm 7 mps 757 mmHg 79%
    02:00 +7°C° 0 mm 6 mps 756 mmHg 77%
    03:00 +7°C° 0 mm 6 mps 756 mmHg 74%
    04:00 +5°C° 0 mm 6 mps 756 mmHg 73%
    05:00 +5°C° 0 mm 6 mps 756 mmHg 73%
    06:00 +4°C° 0 mm 6 mps 756 mmHg 72%
    07:00 +4°C° 0 mm 6 mps 756 mmHg 69%
    08:00 +4°C° 0 mm 6 mps 756 mmHg 67%
    09:00 +4°C° 0 mm 7 mps 755 mmHg 64%
    10:00 +5°C° 0 mm 7 mps 755 mmHg 63%
    11:00 +5°C° 0 mm 7 mps 755 mmHg 63%
    12:00 +5°C° 0 mm 7 mps 754 mmHg 63%
    13:00 +6°C° 0 mm 7 mps 754 mmHg 60%
    14:00 +6°C° 0 mm 7 mps 753 mmHg 58%
    15:00 +8°C° 0 mm 7 mps 752 mmHg 56%
    16:00 +6°C° 0 mm 7 mps 752 mmHg 62%
    17:00 +5°C° 0 mm 7 mps 751 mmHg 69%
    18:00 +4°C° 0 mm 7 mps 751 mmHg 75%
    19:00 +4°C° 0.4 mm 7 mps 750 mmHg 78%
    20:00 +4°C° 0.4 mm 7 mps 750 mmHg 81%
    21:00 +4°C° 0.4 mm 8 mps 749 mmHg 83%
    22:00 +4°C° 0.5 mm 8 mps 749 mmHg 78%
    23:00 +2°C° 0.5 mm 9 mps 749 mmHg 73%

    26 February, Wednesday

    Time Temperature Precipitation Wind Pressure Humidity
    00:00 +2°C° 0.5 mm 9 mps 749 mmHg 67%
    01:00 +2°C° 0.1 mm 9 mps 750 mmHg 67%
    02:00 +1°C° 0.1 mm 9 mps 750 mmHg 66%
    03:00 +1°C° 0.1 mm 9 mps 750 mmHg 66%
    04:00 0°C° 0.2 mm 9 mps 750 mmHg 66%
    05:00 0°C° 0.2 mm 9 mps 751 mmHg 65%
    06:00 0°C° 0.2 mm 10 mps 751 mmHg 65%
    07:00 0°C° 0.3 mm 10 mps 751 mmHg 65%
    08:00 -1°C° 0.3 mm 11 mps 752 mmHg 65%
    09:00 +1°C° 0.3 mm 11 mps 752 mmHg 64%
    10:00 +1°C° 0.2 mm 11 mps 752 mmHg 62%
    11:00 +2°C° 0.2 mm 10 mps 753 mmHg 59%
    12:00 +3°C° 0.2 mm 10 mps 753 mmHg 57%
    13:00 +3°C° 0.4 mm 10 mps 753 mmHg 56%
    14:00 +3°C° 0.4 mm 10 mps 753 mmHg 56%
    15:00 +3°C° 0.4 mm 9 mps 753 mmHg 56%
    16:00 +2°C° 0.4 mm 8 mps 753 mmHg 60%
    17:00 +3°C° 0.4 mm 7 mps 753 mmHg 64%
    18:00 +2°C° 0.4 mm 6 mps 753 mmHg 69%
    19:00 +2°C° 0.3 mm 6 mps 754 mmHg 70%
    20:00 +2°C° 0.3 mm 6 mps 754 mmHg 71%
    21:00 +2°C° 0.3 mm 5 mps 755 mmHg 72%
    22:00 +2°C° 0.1 mm 5 mps 755 mmHg 73%
    23:00 +1°C° 0.1 mm 5 mps 755 mmHg 74%
    Show more